User: anonymous   Login
Location: Warszawa
(52.2500°N, 21.0000°E)
Time: 22:19:04
(UTC+02:00)
Language:

XW-2B - Orbit

View from above orbital plane
View from above orbital plane
View from above satellite
View from above satellite

Ground track
Ground track

The orbit data is extracted from the following two-line orbital elements,

1 40911U 15049N   24113.39917713  .00066446  00000-0  14528-2 0  9993
2 40911  97.4751 131.0590 0009855 127.0837 233.1313 15.43880864475946
Epoch (UTC): 22 April 2024 09:34:48
Eccentricity: 0.0009855
inclination: 97.4751°
perigee height: 428 km
apogee height: 441 km
right ascension of ascending node: 131.0590°
argument of perigee: 127.0837°
revolutions per day: 15.43880864
mean anomaly at epoch: 233.1313°
orbit number at epoch: 47594

The dashed part of the orbit path shows where the satellite is in the earth's shadow,  

DLR